Time,TemperatureF,DewpointF,PressureIn,WindDirection,WindDirectionDegrees,WindSpeedMPH,WindSpeedGustMPH,Humidity,HourlyPrecipIn,Conditions,Clouds,dailyrainin,SoftwareType,DateUTC
2013-02-01 00:13:00,22.3,7.0,29.43,NW,308,2.0,-999.0,52,-99.99,,,0.00,weatherlink.com 1.10,2013-02-01 05:13:00,
2013-02-01 00:28:00,22.1,8.0,29.43,SSW,192,4.0,-999.0,55,-99.99,,,0.00,weatherlink.com 1.10,2013-02-01 05:28:00,
2013-02-01 00:43:00,21.8,7.0,29.44,WSW,239,3.0,-999.0,53,-99.99,,,0.00,weatherlink.com 1.10,2013-02-01 05:43:00,
2013-02-01 00:58:00,21.6,8.0,29.45,NW,306,7.0,-999.0,56,-99.99,,,0.00,weatherlink.com 1.10,2013-02-01 05:58:00,
2013-02-01 01:29:00,21.2,8.0,29.45,South,184,0.0,-999.0,58,-99.99,,,0.00,weatherlink.com 1.10,2013-02-01 06:29:00,
2013-02-01 01:44:00,21.2,8.0,29.46,SSW,205,5.0,-999.0,57,-99.99,,,0.00,weatherlink.com 1.10,2013-02-01 06:44:00,
2013-02-01 01:58:00,21.1,7.0,29.46,NW,309,3.0,-999.0,55,-99.99,,,0.00,weatherlink.com 1.10,2013-02-01 06:58:00,
2013-02-01 02:13:00,20.9,7.0,29.47,WNW,301,0.0,-999.0,56,-99.99,,,0.00,weatherlink.com 1.10,2013-02-01 07:13:00,
2013-02-01 02:28:00,20.8,8.0,29.47,WNW,292,2.0,-999.0,57,-99.99,,,0.00,weatherlink.com 1.10,2013-02-01 07:28:00,
2013-02-01 02:44:00,20.6,7.0,29.47,WNW,302,4.0,-999.0,56,-99.99,,,0.00,weatherlink.com 1.10,2013-02-01 07:44:00,
2013-02-01 02:59:00,20.6,7.0,29.48,NW,319,2.0,-999.0,55,-99.99,,,0.00,weatherlink.com 1.10,2013-02-01 07:59:00,
2013-02-01 03:14:00,20.3,7.0,29.48,West,276,2.0,-999.0,56,-99.99,,,0.00,weatherlink.com 1.10,2013-02-01 08:14:00,
2013-02-01 03:29:00,20.1,7.0,29.48,SW,221,1.0,-999.0,57,-99.99,,,0.00,weatherlink.com 1.10,2013-02-01 08:29:00,
2013-02-01 03:44:00,19.9,8.0,29.49,NW,323,1.0,-999.0,59,-99.99,,,0.00,weatherlink.com 1.10,2013-02-01 08:44:00,
2013-02-01 03:59:00,19.8,7.0,29.50,WNW,293,2.0,-999.0,59,-99.99,,,0.00,weatherlink.com 1.10,2013-02-01 08:59:00,
2013-02-01 04:14:00,19.7,7.0,29.50,SSW,194,6.0,-999.0,57,-99.99,,,0.00,weatherlink.com 1.10,2013-02-01 09:14:00,
2013-02-01 04:29:00,19.5,7.0,29.51,NNE,31,2.0,-999.0,59,-99.99,,,0.00,weatherlink.com 1.10,2013-02-01 09:29:00,
2013-02-01 04:44:00,19.3,8.0,29.52,East,100,5.0,-999.0,62,-99.99,,,0.00,weatherlink.com 1.10,2013-02-01 09:44:00,
2013-02-01 04:59:00,19.0,9.0,29.52,WNW,286,2.0,-999.0,64,-99.99,,,0.00,weatherlink.com 1.10,2013-02-01 09:59:00,
2013-02-01 05:14:00,18.9,10.0,29.53,NW,305,0.0,-999.0,67,-99.99,,,0.00,weatherlink.com 1.10,2013-02-01 10:14:00,
2013-02-01 05:29:00,18.5,10.0,29.53,WNW,300,1.0,-999.0,69,-99.99,,,0.00,weatherlink.com 1.10,2013-02-01 10:29:00,
2013-02-01 05:44:00,17.7,10.0,29.54,WNW,292,3.0,-999.0,73,-99.99,,,0.00,weatherlink.com 1.10,2013-02-01 10:44:00,
2013-02-01 05:59:00,16.4,11.0,29.55,NNW,348,1.0,-999.0,78,-99.99,,,0.00,weatherlink.com 1.10,2013-02-01 10:59:00,
2013-02-01 06:14:00,15.2,11.0,29.56,West,261,2.0,-999.0,84,-99.99,,,0.00,weatherlink.com 1.10,2013-02-01 11:14:00,
2013-02-01 06:29:00,14.8,11.0,29.58,NW,308,2.0,-999.0,86,-99.99,,,0.00,weatherlink.com 1.10,2013-02-01 11:29:00,
2013-02-01 06:45:00,14.3,11.0,29.59,NNW,348,1.0,-999.0,86,-99.99,,,0.00,weatherlink.com 1.10,2013-02-01 11:45:00,
2013-02-01 07:00:00,13.8,10.0,29.60,North,11,1.0,-999.0,85,-99.99,,,0.00,weatherlink.com 1.10,2013-02-01 12:00:00,
2013-02-01 07:14:00,13.2,9.0,29.61,NNW,340,2.0,-999.0,84,-99.99,,,0.00,weatherlink.com 1.10,2013-02-01 12:14:00,
2013-02-01 07:29:00,13.0,9.0,29.63,NNW,340,0.0,-999.0,85,-99.99,,,0.00,weatherlink.com 1.10,2013-02-01 12:29:00,
2013-02-01 07:44:00,13.0,9.0,29.64,NNE,19,1.0,-999.0,85,-99.99,,,0.00,weatherlink.com 1.10,2013-02-01 12:44:00,
2013-02-01 07:59:00,13.0,9.0,29.64,NW,323,2.0,-999.0,85,-99.99,,,0.00,weatherlink.com 1.10,2013-02-01 12:59:00,
2013-02-01 08:15:00,13.2,9.0,29.66,NW,307,0.0,-999.0,84,-99.99,,,0.00,weatherlink.com 1.10,2013-02-01 13:15:00,
2013-02-01 08:30:00,13.6,9.0,29.68,West,265,1.0,-999.0,82,-99.99,,,0.00,weatherlink.com 1.10,2013-02-01 13:30:00,
2013-02-01 08:45:00,14.3,9.0,29.69,NW,316,2.0,-999.0,80,-99.99,,,0.00,weatherlink.com 1.10,2013-02-01 13:45:00,
2013-02-01 09:00:00,14.5,9.0,29.69,WNW,294,1.0,-999.0,77,-99.99,,,0.00,weatherlink.com 1.10,2013-02-01 14:00:00,
2013-02-01 09:15:00,15.0,8.0,29.70,WNW,296,1.0,-999.0,75,-99.99,,,0.00,weatherlink.com 1.10,2013-02-01 14:15:00,
2013-02-01 09:30:00,15.3,9.0,29.71,West,279,0.0,-999.0,76,-99.99,,,0.00,weatherlink.com 1.10,2013-02-01 14:30:00,
2013-02-01 09:45:00,15.4,8.0,29.72,West,268,2.0,-999.0,73,-99.99,,,0.00,weatherlink.com 1.10,2013-02-01 14:45:00,
2013-02-01 10:00:00,15.4,8.0,29.73,WSW,247,1.0,-999.0,72,-99.99,,,0.00,weatherlink.com 1.10,2013-02-01 15:00:00,
2013-02-01 10:15:00,16.1,8.0,29.73,WSW,247,0.0,-999.0,70,-99.99,,,0.00,weatherlink.com 1.10,2013-02-01 15:15:00,
2013-02-01 10:30:00,16.5,8.0,29.74,SSW,198,2.0,-999.0,68,-99.99,,,0.00,weatherlink.com 1.10,2013-02-01 15:30:00,
2013-02-01 10:45:00,17.0,8.0,29.75,West,260,2.0,-999.0,69,-99.99,,,0.00,weatherlink.com 1.10,2013-02-01 15:45:00,
2013-02-01 11:00:00,17.2,8.0,29.75,NNW,337,3.0,-999.0,68,-99.99,,,0.00,weatherlink.com 1.10,2013-02-01 16:00:00,
2013-02-01 11:15:00,17.1,7.0,29.75,NW,312,0.0,-999.0,65,-99.99,,,0.00,weatherlink.com 1.10,2013-02-01 16:15:00,
2013-02-01 11:30:00,17.6,8.0,29.75,NW,315,3.0,-999.0,65,-99.99,,,0.00,weatherlink.com 1.10,2013-02-01 16:30:00,
2013-02-01 11:45:00,18.0,8.0,29.76,NW,325,0.0,-999.0,65,-99.99,,,0.00,weatherlink.com 1.10,2013-02-01 16:45:00,
2013-02-01 12:00:00,18.1,8.0,29.75,SW,227,1.0,-999.0,64,-99.99,,,0.00,weatherlink.com 1.10,2013-02-01 17:00:00,
2013-02-01 12:15:00,18.2,7.0,29.76,WSW,248,2.0,-999.0,62,-99.99,,,0.00,weatherlink.com 1.10,2013-02-01 17:15:00,
2013-02-01 12:30:00,18.4,8.0,29.76,WNW,300,2.0,-999.0,64,-99.99,,,0.00,weatherlink.com 1.10,2013-02-01 17:30:00,
2013-02-01 12:45:00,18.2,7.0,29.76,WNW,302,3.0,-999.0,61,-99.99,,,0.00,weatherlink.com 1.10,2013-02-01 17:45:00,
2013-02-01 13:00:00,18.2,7.0,29.77,North,350,2.0,-999.0,61,-99.99,,,0.00,weatherlink.com 1.10,2013-02-01 18:00:00,
2013-02-01 13:15:00,18.8,8.0,29.76,WNW,296,2.0,-999.0,64,-99.99,,,0.00,weatherlink.com 1.10,2013-02-01 18:15:00,
2013-02-01 13:30:00,19.1,9.0,29.77,North,9,3.0,-999.0,64,-99.99,,,0.00,weatherlink.com 1.10,2013-02-01 18:30:00,
2013-02-01 13:45:00,17.8,7.0,29.77,WSW,238,2.0,-999.0,63,-99.99,,,0.00,weatherlink.com 1.10,2013-02-01 18:45:00,
2013-02-01 14:00:00,17.7,7.0,29.77,SW,221,4.0,-999.0,63,-99.99,,,0.00,weatherlink.com 1.10,2013-02-01 19:00:00,
2013-02-01 14:15:00,17.8,6.0,29.78,WNW,292,1.0,-999.0,60,-99.99,,,0.00,weatherlink.com 1.10,2013-02-01 19:15:00,
2013-02-01 14:30:00,17.7,7.0,29.79,NE,41,0.0,-999.0,62,-99.99,,,0.00,weatherlink.com 1.10,2013-02-01 19:30:00,
2013-02-01 14:46:00,18.6,7.0,29.79,WNW,298,2.0,-999.0,60,-99.99,,,0.00,weatherlink.com 1.10,2013-02-01 19:46:00,
2013-02-01 15:00:00,17.5,7.0,29.80,NNE,14,2.0,-999.0,63,-99.99,,,0.00,weatherlink.com 1.10,2013-02-01 20:00:00,
2013-02-01 15:16:00,16.9,5.0,29.81,NNE,15,3.0,-999.0,60,-99.99,,,0.00,weatherlink.com 1.10,2013-02-01 20:16:00,
2013-02-01 15:30:00,16.2,4.0,29.82,North,355,5.0,-999.0,60,-99.99,,,0.00,weatherlink.com 1.10,2013-02-01 20:30:00,
2013-02-01 15:45:00,15.9,5.0,29.83,SW,226,0.0,-999.0,63,-99.99,,,0.00,weatherlink.com 1.10,2013-02-01 20:45:00,
2013-02-01 16:15:00,15.0,5.0,29.84,West,277,1.0,-999.0,66,-99.99,,,0.00,weatherlink.com 1.10,2013-02-01 21:15:00,
2013-02-01 16:31:00,14.7,6.0,29.85,WNW,290,0.0,-999.0,67,-99.99,,,0.00,weatherlink.com 1.10,2013-02-01 21:31:00,
2013-02-01 16:45:00,14.1,5.0,29.86,NNE,13,1.0,-999.0,68,-99.99,,,0.00,weatherlink.com 1.10,2013-02-01 21:45:00,
2013-02-01 17:01:00,13.7,5.0,29.87,WNW,292,1.0,-999.0,69,-99.99,,,0.00,weatherlink.com 1.10,2013-02-01 22:01:00,
2013-02-01 17:16:00,13.4,5.0,29.88,WSW,246,1.0,-999.0,70,-99.99,,,0.00,weatherlink.com 1.10,2013-02-01 22:16:00,
2013-02-01 17:31:00,13.0,6.0,29.89,SW,229,0.0,-999.0,72,-99.99,,,0.00,weatherlink.com 1.10,2013-02-01 22:31:00,
2013-02-01 17:46:00,12.7,5.0,29.90,ENE,67,1.0,-999.0,71,-99.99,,,0.00,weatherlink.com 1.10,2013-02-01 22:46:00,
2013-02-01 18:01:00,12.5,5.0,29.91,NNW,330,0.0,-999.0,72,-99.99,,,0.00,weatherlink.com 1.10,2013-02-01 23:01:00,
2013-02-01 18:16:00,12.3,5.0,29.92,NNW,329,0.0,-999.0,71,-99.99,,,0.00,weatherlink.com 1.10,2013-02-01 23:16:00,
2013-02-01 18:31:00,12.1,5.0,29.93,NW,315,0.0,-999.0,72,-99.99,,,0.00,weatherlink.com 1.10,2013-02-01 23:31:00,
2013-02-01 18:46:00,12.0,5.0,29.94,WNW,288,0.0,-999.0,72,-99.99,,,0.00,weatherlink.com 1.10,2013-02-01 23:46:00,
2013-02-01 19:01:00,11.8,4.0,29.96,WNW,294,0.0,-999.0,71,-99.99,,,0.00,weatherlink.com 1.10,2013-02-02 00:01:00,
2013-02-01 19:16:00,11.6,4.0,29.97,NNW,338,0.0,-999.0,70,-99.99,,,0.00,weatherlink.com 1.10,2013-02-02 00:16:00,
2013-02-01 19:31:00,11.5,3.0,29.97,North,360,1.0,-999.0,69,-99.99,,,0.00,weatherlink.com 1.10,2013-02-02 00:31:00,
2013-02-01 19:46:00,11.5,2.0,29.99,WNW,298,3.0,-999.0,67,-99.99,,,0.00,weatherlink.com 1.10,2013-02-02 00:46:00,
2013-02-01 20:01:00,11.5,2.0,30.00,NE,39,2.0,-999.0,66,-99.99,,,0.00,weatherlink.com 1.10,2013-02-02 01:01:00,
2013-02-01 20:16:00,11.5,2.0,30.00,North,355,1.0,-999.0,66,-99.99,,,0.00,weatherlink.com 1.10,2013-02-02 01:16:00,
2013-02-01 20:31:00,11.3,2.0,30.01,North,355,0.0,-999.0,66,-99.99,,,0.00,weatherlink.com 1.10,2013-02-02 01:31:00,
2013-02-01 20:46:00,11.1,1.0,30.01,WNW,296,0.0,-999.0,65,-99.99,,,0.00,weatherlink.com 1.10,2013-02-02 01:46:00,
2013-02-01 21:01:00,11.0,2.0,30.01,WNW,292,0.0,-999.0,66,-99.99,,,0.00,weatherlink.com 1.10,2013-02-02 02:01:00,
2013-02-01 21:16:00,11.0,2.0,30.02,WNW,292,0.0,-999.0,66,-99.99,,,0.00,weatherlink.com 1.10,2013-02-02 02:16:00,
2013-02-01 21:32:00,10.9,2.0,30.02,WNW,292,0.0,-999.0,66,-99.99,,,0.00,weatherlink.com 1.10,2013-02-02 02:32:00,
2013-02-01 21:46:00,10.9,2.0,30.02,WSW,242,0.0,-999.0,66,-99.99,,,0.00,weatherlink.com 1.10,2013-02-02 02:46:00,
2013-02-01 22:01:00,11.0,2.0,30.02,WSW,242,0.0,-999.0,67,-99.99,,,0.00,weatherlink.com 1.10,2013-02-02 03:01:00,
2013-02-01 22:16:00,11.0,2.0,30.03,WSW,242,0.0,-999.0,68,-99.99,,,0.00,weatherlink.com 1.10,2013-02-02 03:16:00,
2013-02-01 22:31:00,11.0,3.0,30.03,WSW,258,0.0,-999.0,69,-99.99,,,0.00,weatherlink.com 1.10,2013-02-02 03:31:00,
2013-02-01 22:47:00,11.1,3.0,30.04,WSW,258,0.0,-999.0,69,-99.99,,,0.00,weatherlink.com 1.10,2013-02-02 03:47:00,
2013-02-01 23:02:00,11.0,3.0,30.04,WNW,283,0.0,-999.0,70,-99.99,,,0.00,weatherlink.com 1.10,2013-02-02 04:02:00,
2013-02-01 23:16:00,10.9,3.0,30.04,WNW,283,0.0,-999.0,71,-99.99,,,0.00,weatherlink.com 1.10,2013-02-02 04:16:00,
2013-02-01 23:31:00,10.8,3.0,30.05,WNW,283,0.0,-999.0,72,-99.99,,,0.00,weatherlink.com 1.10,2013-02-02 04:31:00,
2013-02-01 23:47:00,10.7,4.0,30.06,WNW,294,1.0,-999.0,73,-99.99,,,0.00,weatherlink.com 1.10,2013-02-02 04:47:00,